Wetbulb
51.79 52.06 52.30 52.32 52.33 52.51 52.36 52.57 52.70 52.76 53.08 53.49 53.89 54.18 54.70 55.52 54.89 44.31 41.10 45.10 48.66 58.21 58.71 51.18 47.08 45.16 44.32 39.49 39.88 39.83 32.14 28.78 32.07 34.39 37.45 42.45 42.61 47.50 49.85 61.22 63.17 63.24 63.72 65.10 66.38
51.53 51.80 52.08 52.17 52.26 52.57 52.69 52.68 52.78 52.78 53.04 53.50 53.91 54.32 54.93 55.27 50.26 41.73 50.75 55.76 57.24 58.64 47.51 46.61 44.84 44.84 39.45 40.86 38.87 35.43 30.59 32.95 36.92 37.59 37.70 42.00 39.45 42.55 48.02 60.04 61.27 62.75 64.86 65.86 65.33
51.35 51.50 51.86 52.06 52.27 52.54 52.36 52.47 52.55 52.77 53.37 53.79 54.22 54.48 55.21 53.95 44.08 40.56 56.60 58.02 58.88 57.01 48.20 47.09 46.80 43.31 37.09 37.89 38.10 36.90 33.47 36.18 39.70 39.03 40.28 39.21 41.99 43.30 44.83 51.94 61.08 61.35 63.21 64.26 63.76
51.06 51.36 51.57 51.90 52.07 52.52 53.04 53.61 53.18 53.69 54.12 54.41 54.54 54.71 55.44 50.31 33.51 41.86 59.83 59.52 61.05 52.70 47.48 45.57 42.94 38.83 36.26 35.47 37.61 35.48 39.37 37.63 39.42 40.93 40.39 40.11 43.15 42.46 47.08 50.06 63.72 64.63 65.05 64.65 63.33
51.07 51.31 51.43 51.71 52.16 52.47 53.45 53.67 53.73 54.00 54.12 54.54 54.57 54.65 49.85 38.94 38.78 44.13 56.24 52.02 44.52 46.79 43.72 42.62 41.23 39.69 36.09 37.27 38.99 36.60 38.35 40.56 41.01 40.21 40.31 42.00 39.65 40.63 42.52 57.00 62.80 65.55 64.99 64.07 64.04
51.35 51.82 51.78 51.73 52.03 52.35 53.32 53.64 53.93 53.81 54.24 54.31 54.65 54.75 44.29 34.41 43.69 42.77 43.44 43.44 42.39 41.50 41.94 42.83 41.03 41.88 39.17 38.20 36.21 39.24 39.54 38.86 40.16 39.60 39.56 39.40 39.68 39.68 45.41 61.87 63.18 63.04 63.16 63.98 63.78
52.02 52.35 52.33 51.92 52.17 52.50 53.28 53.28 53.40 53.50 53.97 54.03 54.57 53.19 39.42 37.39 40.96 41.48 43.01 40.68 40.95 41.13 39.94 42.55 44.50 41.75 40.08 38.60 41.73 40.85 36.55 37.84 37.59 38.61 37.85 39.03 36.88 37.58 42.41 55.73 61.23 61.38 62.20 62.47 63.10
51.49 52.70 52.49 51.91 51.70 51.97 52.57 52.95 53.24 53.89 54.56 54.94 55.28 46.49 36.65 44.09 41.55 42.10 41.06 41.28 43.45 43.10 41.91 42.08 45.13 41.85 39.42 40.63 39.04 35.59 34.25 30.08 36.14 38.76 39.99 37.14 34.30 39.68 42.06 41.69 46.34 60.11 61.01 62.01 62.49
52.26 52.51 51.86 51.32 51.03 51.04 51.47 51.97 52.74 53.91 54.28 54.02 47.03 39.25 34.95 48.08 40.91 41.56 39.91 40.59 42.08 42.39 42.37 45.61 43.54 38.53 37.09 32.30 29.32 29.33 24.42 28.51 31.91 37.16 36.23 35.33 33.55 39.28 42.12 42.43 41.20 47.23 59.95 61.07 61.83
52.51 52.22 51.84 51.28 50.65 50.88 51.11 51.61 51.81 50.96 50.73 51.17 46.94 37.29 39.51 37.73 40.63 41.87 42.79 42.40 39.74 39.40 38.16 36.60 32.55 29.09 27.63 26.62 18.90 23.40 23.52 23.06 24.70 32.72 33.46 31.93 32.56 37.46 41.01 40.81 41.37 39.38 49.01 59.87 60.71
51.89 51.76 51.43 51.51 51.06 49.84 46.64 46.45 39.34 37.15 39.49 36.60 37.05 37.74 38.51 39.80 42.26 40.35 41.49 40.60 39.21 35.81 29.27 32.40 27.92 23.59 26.63 28.24 29.34 27.95 25.54 24.02 26.39 32.78 31.38 29.85 30.29 34.33 38.60 39.78 39.77 38.61 38.36 48.50 59.70
50.44 50.46 50.48 50.44 50.35 50.34 45.43 42.86 43.91 38.89 33.01 40.25 40.47 39.54 41.69 40.31 37.15 39.01 41.15 36.24 35.47 29.57 31.71 27.64 25.45 30.11 32.70 31.88 29.82 28.08 25.43 24.14 27.97 32.79 31.27 29.32 29.28 33.88 37.21 38.78 39.65 39.16 38.29 41.16 53.66
50.06 49.46 49.44 49.40 49.20 45.93 43.23 42.17 48.16 44.25 32.70 38.05 40.73 39.89 39.44 40.25 35.67 36.07 38.64 35.71 32.97 31.53 29.66 25.37 29.81 35.63 33.67 30.41 29.37 26.30 25.78 25.83 26.20 29.44 27.74 29.22 28.38 31.52 37.81 42.27 42.82 42.43 40.21 40.13 43.31
50.13 50.62 49.32 48.32 45.56 43.87 40.33 45.54 46.46 46.35 27.45 34.76 37.00 39.79 41.21 39.70 35.84 39.27 39.48 36.28 34.83 30.80 32.31 29.74 35.07 33.95 31.16 29.90 30.18 23.58 31.01 30.61 28.56 24.37 18.08 27.82 16.85 27.64 37.47 38.04 39.63 39.72 40.70 40.25 39.95
50.83 50.60 49.99 47.96 40.12 42.24 45.34 47.25 46.01 45.29 14.27 36.21 37.17 43.83 41.83 36.39 36.50 38.83 42.73 38.49 31.76 32.68 32.12 29.29 30.75 30.59 29.40 30.75 33.31 28.46 33.64 30.47 28.92 23.26 21.15 23.42 20.12 30.60 36.87 33.79 35.86 36.83 38.42 40.62 43.67
50.69 50.45 49.88 45.36 42.39 44.81 48.06 48.21 45.85 27.29 10.86 34.15 38.28 37.04 36.72 37.78 36.87 38.79 38.75 40.17 38.29 33.24 33.51 31.62 35.14 33.95 32.59 34.75 34.42 35.19 31.05 29.22 27.21 22.91 15.54 22.53 22.06 26.73 29.72 32.16 34.76 34.90 35.85 37.24 39.85
49.60 49.32 48.04 48.36 40.46 47.28 48.39 43.90 25.32 15.27 35.47 32.07 33.49 36.79 35.67 34.17 35.42 35.10 33.45 31.15 26.78 23.39 23.69 28.78 31.55 34.37 36.23 30.48 32.75 30.57 24.82 13.64 12.44 12.71 14.13 24.71 22.25 24.31 31.47 34.08 34.53 33.30 33.52 34.33 36.02
49.58 48.25 47.03 47.02 44.74 44.65 44.09 30.60 13.65 30.33 32.27 37.39 36.33 36.17 32.69 34.31 33.01 33.33 31.19 26.89 31.12 29.21 23.35 20.31 20.08 30.28 33.90 30.36 27.32 27.44 25.40 16.44 11.92 12.78 16.47 25.46 19.03 22.49 32.68 34.22 34.63 34.26 33.62 33.75 33.64
47.38 42.78 43.04 44.82 46.64 44.74 34.82 19.66 21.74 31.01 35.25 34.52 35.27 32.44 31.23 33.38 32.49 31.11 29.21 28.21 29.50 31.36 23.81 22.45 24.05 32.91 32.34 32.59 29.74 26.36 22.55 29.63 21.84 22.61 16.83 22.14 25.35 31.00 30.57 30.91 31.00 31.52 31.95 31.36 32.04
36.75 40.04 40.41 45.28 46.96 40.04 30.44 28.51 30.54 37.16 37.45 36.64 30.35 32.57 26.26 29.37 29.10 28.78 28.62 31.02 31.07 34.12 33.01 29.57 24.83 29.59 30.11 30.66 29.51 27.76 31.91 22.10 19.21 10.45 13.58 18.47 16.66 16.93 23.39 26.09 28.41 28.47 29.50 30.58 31.67
38.42 36.61 40.98 46.49 43.64 34.64 23.28 27.67 34.64 39.14 39.13 35.49 32.81 31.09 30.90 29.15 29.60 27.91 29.44 32.31 34.33 32.86 32.80 30.76 26.00 22.27 26.69 22.45 18.74 21.69 21.24 25.69 27.25 24.60 17.80 14.94 11.02 24.91 25.29 27.80 25.88 27.00 29.02 29.66 30.03
37.42 28.69 40.43 43.83 32.37 28.05 26.14 34.14 39.30 37.65 39.76 38.10 36.50 34.29 31.35 30.95 28.62 28.24 28.55 32.04 36.47 33.45 28.28 30.47 26.26 17.95 20.45 26.33 28.03 25.16 22.91 25.43 23.08 17.50 20.21 16.66 13.23 26.02 27.33 29.22 26.84 26.78 28.34 29.94 31.11
35.62 34.20 42.56 40.51 23.55 23.88 31.81 35.04 36.81 35.83 35.71 35.67 34.74 35.39 35.33 29.10 26.18 29.81 32.17 37.63 37.33 34.52 29.78 29.22 22.63 17.77 20.05 19.97 22.66 17.05 23.33 24.54 26.86 23.77 14.16 12.98 9.96 26.89 27.36 28.03 27.28 26.28 27.50 28.56 30.19
33.16 28.03 34.29 35.33 32.68 30.03 30.08 31.75 32.60 38.15 36.98 37.57 35.95 37.20 35.30 31.34 31.74 27.46 29.36 35.32 37.93 35.08 36.55 30.65 21.30 12.46 7.76 9.97 14.40 13.59 20.60 22.67 21.27 15.84 14.63 15.14 16.73 21.33 24.04 25.80 26.84 26.78 27.61 28.53 29.13
34.10 30.37 33.59 25.91 29.73 31.40 32.47 34.07 32.28 32.19 37.13 36.56 34.57 33.70 32.42 28.51 28.49 27.80 30.27 31.72 36.18 37.41 32.85 25.31 13.03 17.59 12.56 21.31 23.14 21.95 20.15 21.07 19.32 19.76 14.16 16.39 17.85 21.16 23.98 25.13 27.08 27.61 27.63 27.86 28.12
33.25 32.83 33.59 31.48 34.54 32.48 32.02 30.01 32.08 33.82 33.86 31.55 30.80 34.60 33.06 27.72 28.71 25.65 29.32 28.11 26.45 34.81 30.43 29.08 17.70 18.00 17.01 24.24 23.55 20.35 22.05 22.48 22.04 20.43 19.62 20.03 18.78 25.46 27.60 28.13 26.54 27.03 26.60 26.57 27.53
38.13 39.11 35.43 31.40 30.04 29.16 28.63 32.22 34.04 35.23 35.97 36.55 34.63 31.92 31.50 32.60 35.04 34.44 34.32 32.95 31.05 29.29 31.77 26.65 21.28 19.77 15.76 23.78 24.04 16.56 18.06 21.66 21.29 22.58 13.73 14.49 17.12 23.69 24.64 26.03 25.34 25.05 26.26 26.49 27.86
MSLP
1020.40 1020.27 1020.03 1020.04 1019.94 1019.86 1019.56 1019.35 1019.23 1018.96 1018.94 1018.92 1018.99 1018.70 1018.25 1017.71 1016.80 1015.98 1016.00 1016.22 1015.94 1015.47 1015.23 1014.79 1014.04 1013.81 1013.55 1013.68 1013.55 1013.97 1015.31 1015.59 1014.59 1013.18 1012.24 1010.58 1009.97 1008.32 1008.36 1008.49 1009.09 1009.18 1009.42 1010.98 1012.75
1020.40 1020.24 1020.11 1020.06 1019.85 1019.91 1019.62 1019.23 1019.09 1019.04 1018.97 1019.00 1018.93 1018.69 1018.36 1018.03 1017.31 1016.31 1016.03 1015.86 1015.56 1015.47 1015.34 1015.30 1014.84 1014.48 1014.24 1014.03 1013.84 1014.34 1015.28 1014.60 1013.41 1012.78 1012.02 1011.14 1010.63 1009.84 1009.18 1009.41 1010.43 1010.81 1011.41 1012.43 1013.18
1020.28 1020.27 1020.30 1020.12 1019.78 1019.73 1019.42 1019.09 1019.17 1019.05 1018.98 1018.78 1018.78 1018.63 1018.27 1018.30 1017.77 1016.82 1015.88 1015.74 1015.30 1015.36 1015.60 1015.51 1015.15 1014.99 1014.71 1014.34 1014.15 1014.23 1014.41 1013.85 1012.69 1012.34 1011.78 1011.16 1010.36 1010.07 1010.01 1010.42 1010.37 1011.43 1012.36 1013.17 1013.83
1020.38 1020.37 1019.99 1019.70 1019.69 1019.70 1019.20 1019.13 1019.11 1018.94 1018.78 1018.74 1018.76 1018.37 1018.09 1018.32 1018.16 1016.77 1016.09 1015.52 1014.92 1015.15 1015.33 1015.17 1015.06 1015.00 1015.12 1015.08 1014.70 1014.70 1013.89 1013.77 1012.91 1012.46 1011.90 1011.06 1010.26 1010.36 1010.14 1010.40 1010.44 1010.78 1011.75 1012.93 1013.99
1020.23 1020.02 1019.92 1019.84 1019.80 1019.45 1019.22 1019.16 1018.90 1018.67 1018.58 1018.61 1018.46 1018.22 1017.98 1017.95 1017.76 1016.82 1016.16 1015.64 1015.10 1014.98 1015.21 1015.26 1015.32 1015.33 1015.46 1015.40 1015.01 1014.70 1014.52 1013.89 1013.17 1012.58 1012.08 1011.14 1010.44 1010.39 1010.37 1010.22 1010.95 1011.57 1012.24 1012.95 1013.78
1020.16 1020.10 1019.90 1019.96 1019.75 1019.35 1019.11 1018.87 1018.76 1018.54 1018.40 1018.35 1018.25 1018.14 1017.81 1018.07 1017.28 1016.89 1016.36 1015.82 1015.53 1015.39 1015.25 1015.25 1015.38 1015.32 1015.57 1015.60 1015.67 1015.25 1014.80 1014.19 1013.35 1012.91 1012.32 1011.89 1011.51 1010.93 1010.93 1010.85 1011.30 1011.74 1012.33 1013.09 1013.36
1020.21 1020.00 1020.02 1019.83 1019.48 1019.22 1019.05 1018.84 1018.66 1018.51 1018.32 1018.19 1018.12 1017.88 1017.66 1017.92 1017.50 1016.94 1016.45 1016.18 1015.75 1015.55 1015.43 1015.11 1015.06 1015.49 1015.88 1015.91 1015.64 1015.50 1015.32 1014.60 1014.06 1013.46 1012.97 1012.36 1012.00 1011.72 1011.21 1011.47 1011.87 1012.19 1012.39 1012.88 1013.48
1020.19 1020.07 1019.94 1019.59 1019.35 1019.15 1018.92 1018.78 1018.54 1018.35 1018.17 1018.07 1018.06 1017.84 1018.03 1017.34 1017.31 1017.10 1016.70 1016.13 1015.42 1015.09 1015.12 1015.03 1015.02 1015.57 1016.05 1016.24 1016.31 1016.64 1016.41 1016.30 1015.20 1014.71 1013.83 1013.41 1012.32 1012.11 1011.61 1011.98 1012.28 1012.42 1012.65 1012.69 1013.13
1020.18 1019.99 1019.82 1019.55 1019.24 1018.94 1018.71 1018.49 1018.22 1017.91 1017.76 1017.70 1017.96 1017.79 1018.24 1017.47 1017.53 1017.30 1017.05 1016.80 1015.83 1015.26 1015.07 1014.96 1015.47 1016.64 1017.30 1017.93 1018.32 1018.85 1018.97 1018.38 1017.17 1016.34 1015.95 1015.20 1013.84 1012.44 1011.70 1011.55 1011.84 1011.98 1012.39 1012.53 1012.73
1020.10 1019.98 1019.91 1019.68 1019.24 1018.88 1018.50 1018.16 1017.81 1017.58 1017.41 1017.39 1017.60 1018.19 1018.29 1018.33 1018.00 1017.71 1016.92 1016.84 1016.80 1016.22 1016.22 1016.80 1017.77 1018.91 1019.70 1019.73 1020.81 1020.84 1020.55 1020.06 1019.42 1017.99 1017.15 1016.37 1015.36 1014.19 1013.04 1012.01 1011.44 1011.65 1011.89 1012.21 1012.24
1020.12 1020.01 1019.96 1019.76 1019.36 1019.05 1018.60 1018.12 1018.65 1018.54 1018.32 1018.40 1018.61 1018.41 1018.48 1018.43 1018.14 1017.98 1017.75 1017.78 1017.63 1017.78 1019.03 1019.17 1020.18 1020.85 1020.89 1020.86 1020.98 1021.15 1021.12 1020.94 1020.12 1019.33 1018.52 1017.97 1016.88 1015.46 1013.77 1013.09 1012.22 1011.39 1011.68 1011.69 1011.71
1020.17 1020.01 1019.80 1019.64 1019.45 1019.17 1019.18 1019.37 1019.42 1019.29 1019.28 1018.80 1018.62 1018.44 1018.29 1018.30 1018.62 1018.55 1018.21 1018.90 1019.44 1020.08 1019.92 1020.48 1020.89 1020.91 1020.79 1020.84 1021.04 1021.25 1021.34 1021.28 1020.51 1020.03 1019.51 1018.34 1017.32 1015.75 1014.61 1013.95 1012.75 1011.64 1011.19 1011.16 1011.43
1020.17 1020.00 1019.73 1019.57 1019.32 1019.19 1019.56 1019.56 1019.06 1018.81 1019.41 1019.15 1018.69 1018.42 1018.40 1018.50 1019.03 1019.16 1019.12 1019.61 1020.23 1020.81 1021.20 1021.27 1021.23 1020.74 1020.75 1020.99 1021.09 1021.44 1021.77 1021.80 1021.67 1020.90 1020.13 1019.41 1017.87 1017.02 1016.00 1015.20 1014.54 1013.23 1011.63 1010.54 1010.67
1020.33 1020.05 1019.81 1019.61 1019.79 1019.92 1019.64 1019.21 1018.87 1018.83 1019.74 1019.53 1018.79 1018.41 1018.35 1018.56 1019.21 1019.59 1019.53 1020.14 1020.83 1021.52 1021.61 1021.75 1021.27 1021.10 1021.36 1021.66 1021.80 1021.98 1022.15 1022.19 1022.21 1022.21 1022.15 1021.23 1020.18 1019.05 1018.68 1017.99 1017.44 1016.49 1015.11 1013.23 1011.46
1020.47 1020.29 1020.02 1019.95 1020.42 1020.30 1019.94 1019.21 1018.99 1019.42 1020.32 1019.66 1018.76 1018.26 1018.54 1019.15 1019.68 1020.81 1020.44 1020.84 1021.86 1022.18 1022.62 1022.67 1022.16 1021.88 1021.94 1022.39 1022.28 1022.69 1022.55 1022.74 1022.78 1023.08 1023.13 1022.43 1021.99 1021.78 1020.91 1020.45 1020.55 1019.65 1018.83 1016.71 1015.22
1020.46 1020.22 1019.98 1020.33 1020.70 1020.25 1019.81 1019.50 1019.88 1020.85 1021.01 1019.89 1019.11 1018.91 1019.32 1019.58 1020.45 1021.66 1021.95 1021.54 1022.41 1022.88 1023.25 1023.48 1022.60 1022.84 1022.91 1022.77 1022.89 1022.99 1023.17 1023.22 1023.24 1023.69 1024.11 1023.22 1023.06 1023.81 1024.07 1024.48 1023.34 1022.45 1021.13 1020.03 1018.21
1020.54 1020.29 1020.19 1020.25 1020.72 1020.13 1019.88 1020.44 1021.58 1021.86 1021.07 1020.77 1020.00 1019.84 1020.21 1020.64 1021.44 1022.49 1023.29 1023.61 1024.49 1024.79 1025.02 1024.55 1024.24 1023.86 1023.73 1023.64 1023.73 1024.20 1024.54 1024.83 1024.89 1024.85 1024.70 1023.84 1024.20 1026.41 1026.69 1026.38 1025.94 1024.99 1023.77 1022.61 1021.22
1020.58 1020.51 1020.45 1020.30 1020.34 1020.17 1020.64 1021.71 1022.89 1022.75 1021.83 1021.15 1020.69 1020.77 1021.40 1021.75 1022.74 1023.43 1024.11 1025.02 1025.46 1025.80 1026.19 1026.09 1025.58 1025.59 1025.46 1025.43 1025.44 1025.25 1025.28 1025.71 1025.82 1025.90 1025.63 1024.69 1025.17 1027.90 1027.70 1027.62 1027.41 1026.54 1025.70 1024.39 1023.26
1020.37 1020.94 1020.91 1020.44 1020.17 1020.39 1021.48 1023.45 1024.19 1023.25 1022.59 1021.92 1021.55 1021.86 1022.51 1022.74 1023.33 1024.28 1025.31 1025.94 1026.17 1026.19 1026.73 1026.94 1026.99 1026.75 1026.65 1026.64 1026.81 1026.52 1025.96 1025.60 1025.99 1026.18 1026.45 1025.66 1026.59 1026.64 1027.68 1027.82 1027.28 1026.93 1026.49 1025.71 1025.03
1021.39 1021.56 1021.10 1020.09 1020.23 1021.06 1022.57 1024.02 1023.95 1023.25 1022.66 1022.29 1022.35 1022.64 1023.56 1023.85 1024.36 1024.86 1025.81 1026.47 1026.47 1026.55 1026.73 1027.20 1027.56 1027.87 1027.82 1027.80 1027.77 1027.65 1026.65 1026.21 1026.45 1026.64 1026.48 1026.89 1028.26 1029.28 1028.71 1028.16 1028.10 1028.44 1027.59 1027.30 1026.27
1021.71 1021.98 1020.68 1020.18 1020.55 1021.89 1024.17 1024.15 1023.71 1023.02 1022.64 1022.71 1023.14 1023.80 1024.51 1024.99 1025.37 1025.86 1026.58 1026.63 1026.58 1026.73 1026.90 1027.43 1028.14 1029.46 1029.37 1030.24 1030.47 1028.78 1027.96 1027.21 1026.45 1026.78 1026.95 1027.75 1029.88 1030.73 1030.30 1029.62 1029.47 1029.02 1028.22 1028.09 1026.87
1022.11 1022.40 1020.95 1020.68 1022.33 1023.74 1024.50 1023.94 1023.53 1023.22 1022.83 1023.04 1023.66 1024.43 1025.24 1025.74 1026.46 1026.56 1026.86 1026.89 1026.77 1026.94 1027.37 1027.80 1028.92 1030.44 1031.53 1031.22 1030.86 1030.66 1029.56 1028.21 1027.25 1028.31 1028.45 1029.19 1030.91 1031.16 1031.04 1030.79 1030.86 1029.78 1028.81 1028.07 1027.60
1023.03 1022.76 1021.38 1021.17 1023.90 1024.99 1024.55 1024.30 1023.99 1023.65 1023.53 1023.66 1024.28 1024.96 1025.70 1026.44 1027.12 1027.23 1027.15 1026.96 1026.95 1027.21 1027.60 1028.33 1029.74 1031.34 1032.02 1032.13 1031.93 1031.28 1030.40 1029.18 1028.47 1028.86 1030.17 1030.44 1031.33 1031.54 1031.57 1030.92 1030.76 1030.08 1029.41 1028.42 1026.71
1023.27 1023.84 1023.54 1023.58 1024.38 1024.92 1024.97 1024.72 1024.33 1023.86 1023.97 1024.08 1024.71 1025.44 1026.38 1027.03 1027.17 1027.73 1027.46 1027.29 1027.36 1027.62 1028.01 1028.70 1030.87 1031.74 1033.59 1034.53 1034.19 1033.35 1031.75 1030.80 1030.00 1030.62 1031.37 1032.06 1031.73 1030.73 1030.86 1030.94 1030.41 1029.69 1029.73 1029.34 1028.62
1023.66 1024.67 1024.43 1025.75 1025.39 1024.90 1024.74 1024.79 1024.65 1024.38 1024.41 1024.66 1025.23 1025.76 1026.55 1027.45 1027.74 1027.95 1027.81 1027.87 1027.92 1028.24 1028.88 1030.61 1033.16 1033.60 1034.39 1034.25 1033.83 1033.48 1033.11 1032.64 1032.25 1032.66 1032.86 1032.84 1032.46 1032.11 1031.41 1031.35 1030.63 1030.88 1029.79 1028.14 1027.82
1023.47 1024.02 1024.69 1025.20 1025.03 1025.22 1025.43 1025.34 1025.06 1024.91 1024.99 1025.37 1025.78 1026.19 1026.49 1027.11 1027.52 1028.14 1028.09 1028.24 1028.55 1029.14 1029.88 1031.08 1033.54 1034.40 1034.64 1033.86 1033.08 1033.24 1033.51 1033.49 1033.33 1033.66 1033.89 1033.57 1032.81 1032.05 1031.59 1031.00 1030.41 1030.18 1030.35 1029.83 1029.70
1022.79 1023.09 1023.86 1025.69 1025.75 1025.82 1025.80 1025.44 1025.40 1025.26 1025.69 1025.59 1025.86 1026.38 1026.72 1027.10 1027.30 1027.63 1028.00 1028.32 1028.58 1029.20 1030.11 1031.25 1032.81 1034.01 1034.08 1033.68 1033.13 1033.52 1034.05 1034.11 1034.01 1034.13 1034.43 1034.01 1033.73 1032.40 1031.54 1030.93 1030.66 1030.29 1030.07 1030.39 1030.24
Wind_Speed
5 6 7 7 7 8 8 9 9 9 10 11 11 13 15 16 16 3 9 7 5 11 11 8 5 7 2 2 1 3 5 3 6 3 4 8 9 9 3 7 4 1 14 20 24
6 7 7 7 7 8 8 8 9 10 9 10 11 11 12 13 4 8 6 9 10 7 7 9 9 11 5 2 4 5 4 8 7 5 4 9 5 7 6 7 9 16 19 22 24
7 7 6 6 7 8 9 9 10 10 10 10 11 11 9 8 2 5 8 11 12 3 2 2 6 2 3 4 2 2 6 5 9 5 5 4 10 6 3 3 9 23 22 22 22
6 6 7 8 9 9 8 9 11 11 11 10 10 11 10 2 2 6 14 14 12 2 3 5 5 3 3 5 5 4 6 2 7 7 6 5 3 2 4 1 14 25 26 22 20
6 7 7 8 10 10 10 9 10 11 10 9 9 9 3 6 3 8 13 13 7 5 4 4 5 5 2 4 8 3 6 10 9 5 7 6 4 2 2 5 11 19 20 21 19
6 7 8 10 10 11 10 9 9 9 8 6 6 7 1 8 6 8 10 10 8 5 6 4 2 4 1 3 2 5 7 8 8 7 4 2 5 0 1 5 13 16 18 17 18
6 7 9 10 10 10 9 9 8 7 6 5 5 3 13 4 4 8 9 5 4 3 4 5 2 6 3 8 3 7 7 9 5 5 4 1 5 6 5 7 10 11 9 11 15
7 8 7 8 8 8 8 8 9 7 8 3 5 1 5 2 3 10 9 9 8 5 1 6 0 2 1 4 8 7 4 5 7 10 6 2 9 4 7 7 11 8 11 12 12
8 7 8 9 9 8 8 9 9 9 9 7 1 5 3 3 8 8 4 7 7 8 6 1 4 5 11 4 6 10 5 9 10 9 13 5 6 7 8 9 10 12 13 13 14
8 8 7 9 9 9 11 7 9 8 3 1 2 7 5 3 4 7 10 8 7 8 8 12 8 6 6 9 2 6 4 6 4 10 16 11 9 17 14 10 12 11 13 15 17
8 8 7 8 9 10 7 5 7 8 11 7 2 5 2 3 6 9 5 7 9 8 6 7 11 5 4 2 3 2 2 3 5 10 13 9 13 17 18 12 15 11 11 15 17
7 8 8 7 8 9 3 5 1 4 5 4 4 2 2 2 5 10 7 7 10 9 8 8 7 2 2 1 2 2 3 5 4 11 8 14 12 11 8 11 14 15 11 15 17
9 8 8 7 8 4 2 3 3 5 6 1 1 1 1 5 1 4 6 4 6 10 6 4 3 3 5 6 7 3 5 5 6 8 0 11 7 9 15 23 32 20 9 9 19
10 11 10 9 6 4 3 7 5 4 6 1 2 2 2 2 2 4 6 3 8 5 6 2 6 5 8 6 6 4 6 6 8 6 4 5 7 5 16 22 26 29 30 18 4
11 10 10 3 2 3 4 6 5 6 6 2 1 4 3 4 2 12 6 7 5 4 6 6 5 7 8 4 6 1 4 6 2 2 2 5 0 6 15 21 25 26 27 26 25
12 11 10 3 2 3 5 5 6 9 2 0 1 2 2 3 4 4 9 6 3 5 5 6 4 7 5 6 3 5 6 5 3 4 1 8 4 9 11 16 19 23 25 26 25
12 14 6 2 2 5 4 5 7 8 5 3 1 4 3 3 5 4 11 14 6 6 6 6 11 6 13 6 6 11 4 4 5 3 4 5 5 9 13 10 14 21 22 23 23
11 6 5 1 1 3 4 8 10 4 4 4 3 5 4 6 6 6 4 5 7 4 1 4 7 10 14 4 6 6 1 4 3 2 4 6 2 6 12 12 13 18 17 20 21
8 3 3 3 1 4 7 8 6 3 4 6 6 3 4 5 5 4 4 3 3 6 2 3 1 4 13 7 7 8 2 1 2 2 1 2 5 6 19 17 20 21 21 21 20
3 2 4 2 3 6 8 4 2 4 5 4 3 5 3 7 4 4 3 4 5 5 2 2 1 8 8 8 9 4 6 2 2 2 5 5 5 6 19 21 19 19 18 19 18
4 5 5 3 5 8 5 3 3 2 3 5 5 5 5 3 4 4 5 1 4 6 3 2 3 5 7 8 10 8 5 5 3 3 2 2 2 8 12 15 16 17 16 17 17
3 5 5 3 7 2 3 3 4 4 5 3 5 6 4 5 6 4 2 5 3 3 2 2 4 2 4 12 7 12 10 5 2 3 3 3 3 8 11 11 13 16 17 17 16
3 1 3 6 5 3 3 3 4 5 5 4 3 5 6 3 4 4 3 1 6 4 3 4 3 3 3 7 7 7 16 11 5 3 10 3 3 10 12 10 13 15 16 16 19
5 4 6 6 2 7 3 1 3 2 4 4 4 6 6 7 6 2 4 4 3 4 14 6 5 6 7 7 3 6 18 19 10 5 3 7 12 17 16 16 13 16 16 15 13
4 3 5 1 4 6 6 3 3 3 3 7 6 4 6 3 2 3 3 6 6 8 5 7 4 6 2 7 10 10 13 15 16 10 5 8 10 11 13 11 15 15 17 20 20
5 5 4 2 3 7 5 2 4 2 3 2 4 4 5 4 5 2 2 1 2 4 3 3 6 2 2 9 13 12 13 9 8 9 4 7 6 8 9 7 12 16 12 16 15
2 2 7 5 3 6 1 2 3 6 5 4 4 5 7 2 7 7 3 1 3 5 3 4 7 5 5 10 3 6 5 5 3 2 5 4 6 6 9 11 7 10 10 10 13
Wind_Direction
6 354 354 344 338 327 327 331 326 330 328 326 327 332 332 334 317 2 43 238 282 298 321 290 337 344 82 291 188 93 64 247 246 133 225 317 8 335 56 61 63 262 138 140 132
358 348 341 332 329 313 315 327 321 317 317 318 323 327 327 339 314 39 262 257 264 297 356 6 335 359 351 298 334 101 136 224 220 148 318 306 22 302 36 76 55 75 100 127 132
356 338 322 318 321 312 317 322 307 305 307 319 316 314 324 335 32 337 299 263 261 240 216 299 280 229 302 356 263 181 207 234 273 262 222 274 323 304 54 70 151 136 140 141 141
346 321 334 334 319 306 317 307 303 305 311 311 301 313 317 230 81 290 323 336 330 158 320 327 332 40 342 326 351 350 272 235 297 348 284 227 258 48 32 344 160 150 149 147 147
341 332 329 319 308 311 308 303 311 313 305 294 304 322 304 52 26 301 347 339 355 337 352 11 42 6 351 302 335 197 349 322 296 312 320 296 196 221 288 320 160 142 150 157 157
336 324 326 308 304 308 312 318 317 317 316 310 313 312 89 74 304 327 351 346 351 4 338 13 13 274 312 326 357 297 298 295 314 321 308 326 304 190 73 115 147 153 156 166 160
333 329 310 308 312 313 316 321 323 334 345 322 310 313 66 83 337 342 342 296 286 325 327 316 126 65 335 325 335 309 339 334 349 347 301 13 311 192 196 140 161 165 170 158 156
337 324 326 332 326 320 327 323 320 318 322 299 323 25 94 305 321 8 340 333 330 306 221 265 13 82 86 312 353 347 28 359 306 355 296 62 256 229 257 173 186 204 184 180 168
334 336 350 348 346 336 323 309 302 312 289 272 104 92 59 314 15 323 40 326 329 337 28 318 77 70 12 30 8 27 343 350 338 2 353 349 308 295 240 220 210 189 193 185 188
341 342 352 346 352 348 316 286 298 335 42 327 21 53 6 33 332 332 339 10 19 347 15 27 44 67 22 42 41 318 359 332 337 319 351 328 334 323 301 256 229 190 192 194 189
341 342 354 354 5 3 2 12 22 4 36 111 125 107 51 286 42 343 345 29 7 43 38 13 66 62 22 75 210 252 342 318 296 342 346 333 307 298 295 298 267 241 185 194 198
353 349 5 353 347 337 70 74 142 193 61 59 99 77 125 133 33 339 26 58 34 32 2 31 70 208 184 165 111 55 359 331 304 350 354 324 305 273 301 310 267 240 226 195 199
11 357 359 352 342 38 100 52 274 103 102 310 130 21 11 102 133 327 34 19 62 22 25 101 233 322 346 8 4 18 30 342 327 333 73 359 313 352 342 19 7 348 279 204 186
14 15 7 343 32 317 11 319 3 76 79 127 258 349 43 103 66 42 344 89 15 27 351 352 330 15 70 44 16 11 345 16 358 35 325 63 288 353 4 17 13 18 16 354 285
359 3 347 79 248 57 306 341 360 52 65 177 335 170 73 109 183 349 344 50 27 3 62 290 7 46 49 9 20 340 348 354 283 345 13 307 249 4 13 9 6 9 13 18 25
353 355 357 77 42 259 321 8 45 46 267 266 146 55 85 1 79 71 34 45 64 22 20 32 349 41 354 330 21 332 358 320 331 124 150 230 224 40 14 356 360 4 5 15 21
351 347 358 88 206 307 6 41 44 95 260 49 355 54 74 27 74 59 57 50 48 22 359 340 44 351 20 354 336 19 14 341 355 40 218 244 221 55 10 19 354 6 360 9 14
326 332 326 169 258 26 51 54 72 283 20 340 23 23 80 16 11 24 63 50 18 76 48 25 352 354 3 354 327 306 173 163 254 75 271 292 242 47 15 17 12 9 5 3 14
354 13 352 272 219 69 72 56 184 333 345 336 327 138 20 352 111 94 65 39 31 2 81 27 94 332 23 0 44 324 302 296 220 122 195 238 80 340 5 5 10 9 2 1 1
56 27 293 266 112 63 70 112 64 11 336 341 70 43 70 354 52 51 82 299 340 14 110 193 205 12 13 8 345 284 287 94 21 183 238 72 63 11 355 352 7 355 2 350 352
55 54 263 354 66 48 107 129 137 350 49 52 33 62 60 26 42 33 17 187 14 335 58 70 134 347 40 14 15 345 357 304 192 329 275 145 101 4 356 351 356 346 359 345 349
82 56 295 68 53 35 53 30 70 16 360 88 72 62 59 9 25 45 88 6 15 335 355 282 103 86 152 73 10 24 356 311 291 13 351 117 113 22 360 9 356 349 347 352 343
86 241 315 80 97 10 50 70 72 26 30 37 88 79 39 54 93 31 19 116 41 22 19 328 48 153 187 358 350 359 14 15 99 134 11 34 292 8 1 5 1 355 353 344 355
80 43 337 44 105 123 118 105 103 322 42 42 109 82 68 16 41 31 345 31 56 51 54 78 22 120 139 193 249 25 28 25 37 45 77 14 336 349 1 358 358 359 349 343 343
48 246 187 324 346 79 83 82 83 40 64 32 41 107 135 139 80 9 356 358 38 21 53 90 63 95 148 154 96 65 41 39 41 31 58 324 7 341 341 353 3 353 345 356 355
121 122 19 91 34 63 20 52 106 33 78 32 76 117 95 122 163 171 326 78 234 6 65 51 152 150 242 139 82 53 31 24 40 37 29 358 344 328 320 333 356 2 350 358 352
305 57 99 309 62 78 296 106 27 125 30 78 118 100 86 86 145 168 177 332 297 149 116 120 144 180 214 226 293 26 326 337 328 338 170 20 261 303 328 341 331 336 355 353 341